Time,TemperatureF,DewpointF,PressureIn,WindDirection,WindDirectionDegrees,WindSpeedMPH,WindSpeedGustMPH,Humidity,HourlyPrecipIn,Conditions,Clouds,dailyrainin,SolarRadiationWatts/m^2,SoftwareType,DateUTC
2013-06-04 00:02:00,58.4,43.7,30.05,SSE,167,0.0,0.0,58,0.00,,BKN100,0.00,0.00,VWS V14.01,2013-06-04 05:02:00,
2013-06-04 00:07:00,58.2,43.5,30.05,East,89,2.0,5.0,58,0.00,,BKN100,0.00,0.00,VWS V14.01,2013-06-04 05:07:00,
2013-06-04 00:12:00,58.1,43.9,30.05,South,189,2.0,3.0,59,0.00,,BKN100,0.00,0.00,VWS V14.01,2013-06-04 05:12:00,
2013-06-04 00:17:00,58.1,43.9,30.05,ENE,78,3.0,3.0,59,0.00,,BKN100,0.00,0.00,VWS V14.01,2013-06-04 05:17:00,
2013-06-04 00:22:00,58.0,43.8,30.04,SSE,163,0.0,0.0,59,0.00,,BKN100,0.00,0.00,VWS V14.01,2013-06-04 05:22:00,
2013-06-04 00:27:00,58.0,44.2,30.04,East,99,1.0,2.0,60,0.00,,BKN100,0.00,0.00,VWS V14.01,2013-06-04 05:27:00,
2013-06-04 00:33:00,57.8,44.0,30.02,East,83,0.0,2.0,60,0.00,,BKN100,0.00,0.00,VWS V14.01,2013-06-04 05:33:00,
2013-06-04 00:38:00,57.7,43.9,30.01,SE,134,0.0,1.0,60,0.00,,BKN100,0.00,0.00,VWS V14.01,2013-06-04 05:38:00,
2013-06-04 00:43:00,57.6,43.8,30.01,ESE,107,9.0,10.0,60,0.00,,BKN100,0.00,0.00,VWS V14.01,2013-06-04 05:43:00,
2013-06-04 00:48:00,57.5,43.7,30.02,ENE,57,0.0,0.0,60,0.00,,BKN100,0.00,0.00,VWS V14.01,2013-06-04 05:48:00,
2013-06-04 00:53:00,57.5,43.7,30.01,South,171,3.0,3.0,60,0.00,,BKN100,0.00,0.00,VWS V14.01,2013-06-04 05:53:00,
2013-06-04 00:58:00,57.4,44.1,30.00,East,98,4.0,5.0,61,0.00,,BKN100,0.00,0.00,VWS V14.01,2013-06-04 05:58:00,
2013-06-04 01:03:00,57.3,44.0,30.01,ESE,102,2.0,4.0,61,0.00,,SCT100,0.00,0.00,VWS V14.01,2013-06-04 06:03:00,
2013-06-04 01:08:00,57.2,43.9,30.01,East,81,0.0,4.0,61,0.00,,SCT100,0.00,0.00,VWS V14.01,2013-06-04 06:08:00,
2013-06-04 01:13:00,57.1,43.8,30.01,South,184,0.0,1.0,61,0.00,,SCT100,0.00,0.00,VWS V14.01,2013-06-04 06:13:00,
2013-06-04 01:18:00,56.9,44.0,30.01,ENE,77,0.0,0.0,62,0.00,,SCT100,0.00,0.00,VWS V14.01,2013-06-04 06:18:00,
2013-06-04 01:23:00,56.7,43.8,30.02,ESE,110,0.0,0.0,62,0.00,,SCT100,0.00,0.00,VWS V14.01,2013-06-04 06:23:00,
2013-06-04 01:28:00,56.7,43.8,30.02,SE,138,1.0,1.0,62,0.00,,SCT100,0.00,0.00,VWS V14.01,2013-06-04 06:28:00,
2013-06-04 01:33:00,56.6,44.2,30.03,ENE,75,0.0,0.0,63,0.00,,SCT100,0.00,0.00,VWS V14.01,2013-06-04 06:33:00,
2013-06-04 01:38:00,56.5,43.7,30.03,SE,134,0.0,0.0,62,0.00,,SCT100,0.00,0.00,VWS V14.01,2013-06-04 06:38:00,
2013-06-04 01:43:00,56.4,44.0,30.04,ESE,111,0.0,0.0,63,0.00,,SCT100,0.00,0.00,VWS V14.01,2013-06-04 06:43:00,
2013-06-04 01:48:00,56.4,44.0,30.04,ENE,57,0.0,0.0,63,0.00,,SCT100,0.00,0.00,VWS V14.01,2013-06-04 06:48:00,
2013-06-04 01:53:00,56.5,44.1,30.04,NE,56,0.0,0.0,63,0.00,,SCT100,0.00,0.00,VWS V14.01,2013-06-04 06:53:00,
2013-06-04 01:58:00,56.5,44.1,30.04,SSE,167,0.0,0.0,63,0.00,,SCT100,0.00,0.00,VWS V14.01,2013-06-04 06:58:00,
2013-06-04 02:03:00,56.4,43.6,30.05,East,86,0.0,0.0,62,0.00,,BKN100,0.00,0.00,VWS V14.01,2013-06-04 07:03:00,
2013-06-04 02:08:00,56.4,43.6,30.05,ESE,115,0.0,0.0,62,0.00,,BKN100,0.00,0.00,VWS V14.01,2013-06-04 07:08:00,
2013-06-04 02:13:00,56.2,43.8,30.06,East,101,0.0,0.0,63,0.00,,BKN100,0.00,0.00,VWS V14.01,2013-06-04 07:13:00,
2013-06-04 02:18:00,56.0,43.6,30.05,East,101,0.0,0.0,63,0.00,,BKN100,0.00,0.00,VWS V14.01,2013-06-04 07:18:00,
2013-06-04 02:23:00,55.7,43.3,30.05,ENE,76,0.0,0.0,63,0.00,,BKN100,0.00,0.00,VWS V14.01,2013-06-04 07:23:00,
2013-06-04 02:28:00,55.6,43.6,30.06,ESE,123,0.0,0.0,64,0.00,,BKN100,0.00,0.00,VWS V14.01,2013-06-04 07:28:00,
2013-06-04 02:33:00,55.6,43.6,30.06,SSE,161,0.0,0.0,64,0.00,,BKN100,0.00,0.00,VWS V14.01,2013-06-04 07:33:00,
2013-06-04 02:38:00,55.4,43.4,30.07,South,180,0.0,0.0,64,0.00,,BKN100,0.00,0.00,VWS V14.01,2013-06-04 07:38:00,
2013-06-04 02:43:00,55.5,43.1,30.07,SSE,156,0.0,0.0,63,0.00,,BKN100,0.00,0.00,VWS V14.01,2013-06-04 07:43:00,
2013-06-04 02:48:00,55.7,43.7,30.08,SE,129,0.0,0.0,64,0.00,,BKN100,0.00,0.00,VWS V14.01,2013-06-04 07:48:00,
2013-06-04 02:53:00,55.7,43.3,30.09,SE,129,0.0,0.0,63,0.00,,BKN100,0.00,0.00,VWS V14.01,2013-06-04 07:53:00,
2013-06-04 02:58:00,55.6,44.0,30.09,SE,130,0.0,0.0,65,0.00,,BKN100,0.00,0.00,VWS V14.01,2013-06-04 07:58:00,
2013-06-04 03:03:00,55.4,45.4,30.10,SE,130,0.0,0.0,69,0.00,,FEW110,0.00,0.00,VWS V14.01,2013-06-04 08:03:00,
2013-06-04 03:08:00,55.0,45.0,30.10,SE,130,0.0,0.0,69,0.00,,FEW110,0.00,0.00,VWS V14.01,2013-06-04 08:08:00,
2013-06-04 03:13:00,54.7,45.9,30.10,SE,130,0.0,0.0,72,0.00,,FEW110,0.00,0.00,VWS V14.01,2013-06-04 08:13:00,
2013-06-04 03:18:00,54.5,45.7,30.10,SE,129,0.0,0.0,72,0.00,,FEW110,0.00,0.00,VWS V14.01,2013-06-04 08:18:00,
2013-06-04 03:23:00,54.3,46.2,30.10,SE,130,0.0,0.0,74,0.00,,FEW110,0.00,0.00,VWS V14.01,2013-06-04 08:23:00,
2013-06-04 03:28:00,54.0,45.5,30.09,SE,129,0.0,0.0,73,0.00,,FEW110,0.00,0.00,VWS V14.01,2013-06-04 08:28:00,
2013-06-04 03:33:00,54.0,45.5,30.08,SE,130,0.0,0.0,73,0.00,,FEW110,0.00,0.00,VWS V14.01,2013-06-04 08:33:00,
2013-06-04 03:38:00,53.9,45.1,30.08,SE,129,0.0,0.0,72,0.00,,FEW110,0.00,0.00,VWS V14.01,2013-06-04 08:38:00,
2013-06-04 03:43:00,54.0,44.5,30.07,SE,129,0.0,0.0,70,0.00,,FEW110,0.00,0.00,VWS V14.01,2013-06-04 08:43:00,
2013-06-04 03:48:00,54.1,44.2,30.05,East,94,0.0,0.0,69,0.00,,FEW110,0.00,0.00,VWS V14.01,2013-06-04 08:48:00,
2013-06-04 03:53:00,54.6,43.5,30.04,SE,140,0.0,0.0,66,0.00,,FEW110,0.00,0.00,VWS V14.01,2013-06-04 08:53:00,
2013-06-04 03:58:00,55.1,43.6,30.03,ESE,103,0.0,0.0,65,0.00,,FEW110,0.00,0.00,VWS V14.01,2013-06-04 08:58:00,
2013-06-04 04:03:00,55.5,43.5,30.04,SSE,164,0.0,0.0,64,0.00,,BKN110,0.00,0.00,VWS V14.01,2013-06-04 09:03:00,
2013-06-04 04:08:00,55.7,43.3,30.04,SE,129,3.0,3.0,63,0.00,,BKN110,0.00,0.00,VWS V14.01,2013-06-04 09:08:00,
2013-06-04 04:13:00,55.9,43.1,30.03,NE,40,1.0,1.0,62,0.00,,BKN110,0.00,0.00,VWS V14.01,2013-06-04 09:13:00,
2013-06-04 04:18:00,56.0,43.2,30.03,SE,143,6.0,6.0,62,0.00,,BKN110,0.00,0.00,VWS V14.01,2013-06-04 09:18:00,
2013-06-04 04:23:00,56.0,43.2,30.04,SE,126,4.0,4.0,62,0.00,,BKN110,0.00,0.00,VWS V14.01,2013-06-04 09:23:00,
2013-06-04 04:28:00,56.0,43.2,30.04,ESE,107,0.0,0.0,62,0.00,,BKN110,0.00,0.00,VWS V14.01,2013-06-04 09:28:00,
2013-06-04 04:33:00,56.1,42.8,30.03,SSE,159,0.0,0.0,61,0.00,,BKN110,0.00,0.00,VWS V14.01,2013-06-04 09:33:00,
2013-06-04 04:38:00,56.1,42.8,30.03,ESE,114,0.0,3.0,61,0.00,,BKN110,0.00,0.00,VWS V14.01,2013-06-04 09:38:00,
2013-06-04 04:43:00,56.1,42.8,30.04,East,89,5.0,5.0,61,0.00,,BKN110,0.00,0.00,VWS V14.01,2013-06-04 09:43:00,
2013-06-04 04:48:00,56.0,42.8,30.04,SSE,152,0.0,2.0,61,0.00,,BKN110,0.00,0.00,VWS V14.01,2013-06-04 09:48:00,
2013-06-04 04:53:00,56.0,42.8,30.04,SE,145,2.0,2.0,61,0.00,,BKN110,0.00,0.00,VWS V14.01,2013-06-04 09:53:00,
2013-06-04 04:58:00,56.0,42.8,30.04,ESE,107,0.0,0.0,61,0.00,,BKN110,0.00,0.00,VWS V14.01,2013-06-04 09:58:00,
2013-06-04 05:04:00,56.0,42.8,30.03,SE,142,0.0,3.0,61,0.00,,SCT110,0.00,0.00,VWS V14.01,2013-06-04 10:04:00,
2013-06-04 05:09:00,56.0,42.3,30.03,SSE,150,0.0,0.0,60,0.00,,SCT110,0.00,0.00,VWS V14.01,2013-06-04 10:09:00,
2013-06-04 05:14:00,56.0,42.8,30.02,ESE,107,0.0,0.0,61,0.00,,SCT110,0.00,0.00,VWS V14.01,2013-06-04 10:14:00,
2013-06-04 05:19:00,55.9,42.7,30.02,South,172,0.0,2.0,61,0.00,,SCT110,0.00,0.00,VWS V14.01,2013-06-04 10:19:00,
2013-06-04 05:24:00,55.9,42.7,30.02,SE,146,2.0,4.0,61,0.00,,SCT110,0.00,0.00,VWS V14.01,2013-06-04 10:24:00,
2013-06-04 05:29:00,55.9,42.7,30.01,NE,36,0.0,0.0,61,0.00,,SCT110,0.00,0.00,VWS V14.01,2013-06-04 10:29:00,
2013-06-04 05:34:00,55.9,43.1,30.01,SE,131,0.0,0.0,62,0.00,,SCT110,0.00,0.00,VWS V14.01,2013-06-04 10:34:00,
2013-06-04 05:39:00,55.8,42.6,30.01,SE,133,1.0,4.0,61,0.00,,SCT110,0.00,0.00,VWS V14.01,2013-06-04 10:39:00,
2013-06-04 05:44:00,55.8,42.6,30.01,ESE,114,1.0,3.0,61,0.00,,SCT110,0.00,0.00,VWS V14.01,2013-06-04 10:44:00,
2013-06-04 05:49:00,55.8,42.6,30.01,NNE,12,0.0,1.0,61,0.00,,SCT110,0.00,0.00,VWS V14.01,2013-06-04 10:49:00,
2013-06-04 05:54:00,55.7,42.9,30.00,SSE,156,0.0,0.0,62,0.00,,SCT110,0.00,0.00,VWS V14.01,2013-06-04 10:54:00,
2013-06-04 05:59:00,55.4,43.0,30.00,SE,142,1.0,2.0,63,0.00,,SCT110,0.00,5.00,VWS V14.01,2013-06-04 10:59:00,
2013-06-04 06:04:00,55.2,42.8,30.00,West,271,0.0,0.0,63,0.00,,BKN110,0.00,5.00,VWS V14.01,2013-06-04 11:04:00,
2013-06-04 06:09:00,55.0,42.7,30.00,East,87,1.0,3.0,63,0.00,,BKN110,0.00,7.00,VWS V14.01,2013-06-04 11:09:00,
2013-06-04 06:14:00,54.9,42.6,30.00,ENE,69,1.0,1.0,63,0.00,,BKN110,0.00,9.00,VWS V14.01,2013-06-04 11:14:00,
2013-06-04 06:19:00,54.9,42.6,30.01,ESE,122,0.0,0.0,63,0.00,,BKN110,0.00,11.00,VWS V14.01,2013-06-04 11:19:00,
2013-06-04 06:24:00,54.8,42.9,30.01,ESE,109,0.0,0.0,64,0.00,,BKN110,0.00,14.00,VWS V14.01,2013-06-04 11:24:00,
2013-06-04 06:29:00,54.6,43.1,30.01,ESE,116,1.0,4.0,65,0.00,,BKN110,0.00,16.00,VWS V14.01,2013-06-04 11:29:00,
2013-06-04 06:34:00,54.2,43.1,30.02,ESE,103,0.0,4.0,66,0.00,,BKN110,0.00,25.00,VWS V14.01,2013-06-04 11:34:00,
2013-06-04 06:39:00,53.9,43.6,30.02,SE,141,1.0,6.0,68,0.00,,BKN110,0.00,26.00,VWS V14.01,2013-06-04 11:39:00,
2013-06-04 06:44:00,53.5,43.6,30.02,SSE,150,0.0,4.0,69,0.00,,BKN110,0.00,26.00,VWS V14.01,2013-06-04 11:44:00,
2013-06-04 06:49:00,53.3,43.8,30.02,ENE,57,0.0,0.0,70,0.00,,BKN110,0.00,21.00,VWS V14.01,2013-06-04 11:49:00,
2013-06-04 06:54:00,53.4,43.5,30.03,SSE,161,0.0,0.0,69,0.00,,BKN110,0.00,21.00,VWS V14.01,2013-06-04 11:54:00,
2013-06-04 06:59:00,53.5,43.6,30.02,SE,132,4.0,4.0,69,0.00,,BKN110,0.00,26.00,VWS V14.01,2013-06-04 11:59:00,
2013-06-04 07:04:00,53.5,43.6,30.03,ESE,121,1.0,2.0,69,0.00,,BKN110,0.00,23.00,VWS V14.01,2013-06-04 12:04:00,
2013-06-04 07:09:00,53.5,43.6,30.03,ESE,108,6.0,6.0,69,0.00,,BKN110,0.00,28.00,VWS V14.01,2013-06-04 12:09:00,
2013-06-04 07:14:00,53.6,43.7,30.03,ENE,65,4.0,6.0,69,0.00,,BKN110,0.00,44.00,VWS V14.01,2013-06-04 12:14:00,
2013-06-04 07:19:00,53.8,43.9,30.03,WSW,238,0.0,0.0,69,0.00,,BKN110,0.00,47.00,VWS V14.01,2013-06-04 12:19:00,
2013-06-04 07:24:00,53.9,44.0,30.04,SE,126,0.0,0.0,69,0.00,,BKN110,0.00,42.00,VWS V14.01,2013-06-04 12:24:00,
2013-06-04 07:29:00,53.9,44.0,30.04,ENE,59,0.0,0.0,69,0.00,,BKN110,0.00,26.00,VWS V14.01,2013-06-04 12:29:00,
2013-06-04 07:34:00,54.0,44.1,30.05,ESE,107,0.0,3.0,69,0.00,,BKN110,0.00,18.00,VWS V14.01,2013-06-04 12:34:00,
2013-06-04 07:39:00,54.0,45.2,30.05,ESE,115,2.0,2.0,72,0.00,,BKN110,0.00,18.00,VWS V14.01,2013-06-04 12:39:00,
2013-06-04 07:44:00,53.9,44.3,30.05,SSE,168,1.0,4.0,70,0.00,,BKN110,0.00,19.00,VWS V14.01,2013-06-04 12:44:00,
2013-06-04 07:49:00,53.9,44.3,30.05,East,99,0.0,0.0,70,0.00,,BKN110,0.00,16.00,VWS V14.01,2013-06-04 12:49:00,
2013-06-04 07:54:00,53.9,44.3,30.05,ESE,115,0.0,0.0,70,0.00,,BKN110,0.00,19.00,VWS V14.01,2013-06-04 12:54:00,
2013-06-04 07:59:00,54.0,44.5,30.05,SE,132,2.0,2.0,70,0.00,,BKN110,0.00,26.00,VWS V14.01,2013-06-04 12:59:00,
2013-06-04 08:04:00,54.1,44.9,30.05,ENE,69,0.0,0.0,71,0.00,,OVC075,0.00,33.00,VWS V14.01,2013-06-04 13:04:00,
2013-06-04 08:09:00,54.1,44.9,30.05,NE,53,0.0,0.0,71,0.00,,OVC075,0.00,39.00,VWS V14.01,2013-06-04 13:09:00,
2013-06-04 08:14:00,54.2,45.0,30.05,East,88,0.0,0.0,71,0.00,,OVC075,0.00,40.00,VWS V14.01,2013-06-04 13:14:00,
2013-06-04 08:19:00,54.2,45.4,30.06,NE,34,0.0,0.0,72,0.00,,OVC075,0.00,30.00,VWS V14.01,2013-06-04 13:19:00,
2013-06-04 08:24:00,54.2,45.4,30.06,NNE,26,6.0,6.0,72,0.00,,OVC075,0.00,25.00,VWS V14.01,2013-06-04 13:24:00,
2013-06-04 08:29:00,54.1,45.7,30.07,NE,49,2.0,2.0,73,0.00,,OVC075,0.00,25.00,VWS V14.01,2013-06-04 13:29:00,
2013-06-04 08:34:00,54.0,45.5,30.07,NE,45,0.0,0.0,73,0.00,,OVC075,0.00,35.00,VWS V14.01,2013-06-04 13:34:00,
2013-06-04 08:39:00,54.0,45.5,30.07,ENE,61,0.0,0.0,73,0.00,,OVC075,0.00,37.00,VWS V14.01,2013-06-04 13:39:00,
2013-06-04 08:44:00,54.0,45.5,30.07,NNE,31,2.0,4.0,73,0.00,,OVC075,0.00,35.00,VWS V14.01,2013-06-04 13:44:00,
2013-06-04 08:49:00,53.9,45.8,30.07,NE,42,0.0,0.0,74,0.00,,OVC075,0.00,35.00,VWS V14.01,2013-06-04 13:49:00,
2013-06-04 08:54:00,53.9,45.8,30.07,ENE,57,0.0,1.0,74,0.00,,OVC075,0.00,47.00,VWS V14.01,2013-06-04 13:54:00,
2013-06-04 08:59:00,53.6,46.2,30.08,NE,36,0.0,1.0,76,0.00,,OVC075,0.00,70.00,VWS V14.01,2013-06-04 13:59:00,
2013-06-04 09:04:00,53.4,46.7,30.08,NNE,30,3.0,3.0,78,0.01,,OVC070,0.01,70.00,VWS V14.01,2013-06-04 14:04:00,
2013-06-04 09:09:00,53.1,46.8,30.09,NE,53,0.0,1.0,79,0.01,,OVC070,0.01,56.00,VWS V14.01,2013-06-04 14:09:00,
2013-06-04 09:40:00,51.7,47.7,30.10,NE,36,9.0,9.0,86,0.05,,OVC070,0.05,19.00,VWS V14.01,2013-06-04 14:40:00,
2013-06-04 09:45:00,51.6,47.6,30.10,NNE,13,12.0,12.0,86,0.05,,RA,0.05,28.00,VWS V14.01,2013-06-04 14:45:00,
2013-06-04 09:50:00,51.5,47.5,30.10,NNE,30,11.0,14.0,86,0.05,,RA,0.05,30.00,VWS V14.01,2013-06-04 14:50:00,
2013-06-04 09:55:00,51.5,47.5,30.10,NNE,24,8.0,8.0,86,0.05,,-RA,0.05,28.00,VWS V14.01,2013-06-04 14:55:00,
2013-06-04 10:00:00,51.6,47.5,29.86,NNE,20,6.0,11.0,86,0.05,,,0.05,21.0,WUHU216DAVISVP2,2013-06-04 15:00:00,
2013-06-04 10:05:00,51.6,47.5,29.86,NNE,29,7.0,12.0,86,0.06,,,0.07,26.0,WUHU216DAVISVP2,2013-06-04 15:05:00,
2013-06-04 10:10:00,51.5,47.5,30.11,NNE,31,0.0,1.0,86,0.10,,-RA,0.11,37.00,VWS V14.01,2013-06-04 15:10:00,
2013-06-04 10:15:00,51.3,47.5,29.85,SSE,150,0.0,7.0,87,0.12,,,0.15,42.0,WUHU216DAVISVP2,2013-06-04 15:15:00,
2013-06-04 10:20:00,51.2,47.4,29.85,East,86,0.0,7.0,87,0.15,,,0.18,44.0,WUHU216DAVISVP2,2013-06-04 15:20:00,
2013-06-04 10:25:00,51.2,47.7,29.85,SE,137,0.0,7.0,88,0.18,,,0.21,47.0,WUHU216DAVISVP2,2013-06-04 15:25:00,
2013-06-04 10:30:00,51.2,48.0,29.85,South,180,0.0,9.0,89,0.20,,,0.24,65.0,WUHU216DAVISVP2,2013-06-04 15:30:00,
2013-06-04 10:35:00,50.3,47.8,30.10,SSE,166,0.0,0.0,91,0.21,,RA,0.26,63.00,VWS V14.01,2013-06-04 15:35:00,
2013-06-04 10:40:00,51.4,48.5,29.84,SE,138,0.0,11.0,90,0.24,,,0.29,70.0,WUHU216DAVISVP2,2013-06-04 15:40:00,
2013-06-04 10:45:00,51.4,48.5,29.83,East,92,5.0,11.0,90,0.25,,,0.30,77.0,WUHU216DAVISVP2,2013-06-04 15:45:00,
2013-06-04 10:50:00,51.5,48.7,29.83,SSE,151,7.0,13.0,90,0.26,,,0.31,100.0,WUHU216DAVISVP2,2013-06-04 15:50:00,
2013-06-04 10:55:00,51.7,48.9,29.83,SW,222,3.0,16.0,90,0.27,,,0.32,107.0,WUHU216DAVISVP2,2013-06-04 15:55:00,
2013-06-04 11:00:00,51.9,49.1,29.83,ESE,113,0.0,16.0,90,0.28,,,0.33,111.0,WUHU216DAVISVP2,2013-06-04 16:00:00,
2013-06-04 11:05:00,51.0,48.8,30.08,East,84,0.0,0.0,92,0.26,,RA,0.33,93.00,VWS V14.01,2013-06-04 16:05:00,
2013-06-04 11:10:00,52.2,49.3,29.82,ESE,113,12.0,12.0,90,0.23,,,0.33,91.0,WUHU216DAVISVP2,2013-06-04 16:10:00,
2013-06-04 11:15:00,52.3,49.4,29.82,ESE,107,9.0,14.0,90,0.19,,,0.34,69.0,WUHU216DAVISVP2,2013-06-04 16:15:00,
2013-06-04 11:20:00,52.4,49.6,29.82,NE,46,5.0,14.0,90,0.16,,,0.34,63.0,WUHU216DAVISVP2,2013-06-04 16:20:00,
2013-06-04 11:25:00,52.6,49.8,29.82,South,184,4.0,11.0,90,0.13,,,0.34,65.0,WUHU216DAVISVP2,2013-06-04 16:25:00,
2013-06-04 11:30:00,52.7,49.8,29.82,SE,130,6.0,10.0,90,0.10,,,0.34,88.0,WUHU216DAVISVP2,2013-06-04 16:30:00,
2013-06-04 11:35:00,52.9,50.0,29.82,ENE,77,5.0,10.0,90,0.08,,,0.34,135.0,WUHU216DAVISVP2,2013-06-04 16:35:00,
2013-06-04 11:40:00,52.2,50.2,30.07,ENE,65,0.0,0.0,93,0.05,,RA,0.34,243.00,VWS V14.01,2013-06-04 16:40:00,
2013-06-04 11:45:00,53.8,51.2,29.81,East,92,0.0,9.0,91,0.04,,,0.34,369.0,WUHU216DAVISVP2,2013-06-04 16:45:00,
2013-06-04 11:50:00,54.4,51.8,29.82,South,178,0.0,11.0,91,0.03,,,0.34,360.0,WUHU216DAVISVP2,2013-06-04 16:50:00,
2013-06-04 11:55:00,54.0,52.0,30.07,SE,124,2.0,2.0,93,0.02,,RA,0.34,341.00,VWS V14.01,2013-06-04 16:55:00,
2013-06-04 12:00:00,55.4,52.8,29.81,SSE,148,6.0,12.0,91,0.01,,,0.34,288.0,WUHU216DAVISVP2,2013-06-04 17:00:00,
2013-06-04 12:05:00,54.6,52.3,30.07,SSE,148,6.0,6.0,92,0.01,,OVC060,0.34,367.00,VWS V14.01,2013-06-04 17:05:00,
2013-06-04 12:10:00,56.0,53.1,29.81,ESE,113,0.0,10.0,90,0.01,,,0.34,480.0,WUHU216DAVISVP2,2013-06-04 17:10:00,
2013-06-04 12:15:00,55.6,53.3,30.06,East,96,6.0,9.0,92,0.01,,OVC060,0.34,383.00,VWS V14.01,2013-06-04 17:15:00,
2013-06-04 12:20:00,56.7,53.2,29.81,SE,126,7.0,11.0,88,0.00,,,0.34,267.0,WUHU216DAVISVP2,2013-06-04 17:20:00,
2013-06-04 12:25:00,56.9,53.4,29.81,SSE,150,0.0,13.0,88,0.00,,,0.34,192.0,WUHU216DAVISVP2,2013-06-04 17:25:00,
2013-06-04 12:30:00,56.9,53.4,29.81,NE,36,0.0,13.0,88,0.00,,,0.34,199.0,WUHU216DAVISVP2,2013-06-04 17:30:00,
2013-06-04 12:35:00,56.1,53.2,30.05,SSE,149,4.0,4.0,90,0.00,,OVC060,0.34,216.00,VWS V14.01,2013-06-04 17:35:00,
2013-06-04 12:40:00,56.3,53.1,30.05,ESE,105,4.0,4.0,89,0.00,,OVC060,0.34,213.00,VWS V14.01,2013-06-04 17:40:00,
2013-06-04 12:45:00,57.5,53.7,29.81,ESE,109,4.0,14.0,87,0.00,,,0.34,142.0,WUHU216DAVISVP2,2013-06-04 17:45:00,
2013-06-04 12:50:00,57.6,53.7,29.81,East,87,2.0,14.0,87,0.00,,,0.34,105.0,WUHU216DAVISVP2,2013-06-04 17:50:00,
2013-06-04 12:55:00,57.8,54.0,29.81,SE,140,12.0,13.0,87,0.00,,,0.34,79.0,WUHU216DAVISVP2,2013-06-04 17:55:00,
2013-06-04 13:00:00,57.8,53.6,29.81,SE,124,3.0,13.0,86,0.00,,,0.34,77.0,WUHU216DAVISVP2,2013-06-04 18:00:00,
2013-06-04 13:05:00,57.9,53.4,29.81,ESE,121,2.0,12.0,85,0.00,,,0.34,81.0,WUHU216DAVISVP2,2013-06-04 18:05:00,
2013-06-04 13:10:00,58.0,53.5,29.80,SE,145,8.0,12.0,85,0.00,,,0.34,100.0,WUHU216DAVISVP2,2013-06-04 18:10:00,
2013-06-04 13:15:00,58.1,53.6,29.80,SE,140,0.0,11.0,85,0.00,,,0.34,102.0,WUHU216DAVISVP2,2013-06-04 18:15:00,
2013-06-04 13:20:00,57.1,53.0,30.05,South,173,4.0,4.0,86,0.00,,OVC050,0.34,90.00,VWS V14.01,2013-06-04 18:20:00,
2013-06-04 13:25:00,57.2,53.1,30.06,SE,137,0.0,0.0,86,0.00,,OVC050,0.34,72.00,VWS V14.01,2013-06-04 18:25:00,
2013-06-04 13:30:00,58.2,53.4,29.81,ENE,57,4.0,11.0,84,0.00,,,0.34,51.0,WUHU216DAVISVP2,2013-06-04 18:30:00,
2013-06-04 13:35:00,57.2,53.1,30.06,ENE,77,0.0,1.0,86,0.00,,OVC050,0.34,28.00,VWS V14.01,2013-06-04 18:35:00,
2013-06-04 13:40:00,57.1,53.0,30.07,ENE,78,0.0,0.0,86,0.00,,OVC050,0.34,18.00,VWS V14.01,2013-06-04 18:40:00,
2013-06-04 13:45:00,58.0,53.5,29.82,NE,49,0.0,5.0,85,0.00,,,0.34,14.0,WUHU216DAVISVP2,2013-06-04 18:45:00,
2013-06-04 13:50:00,57.0,53.2,30.07,NNE,30,4.0,4.0,87,0.00,,OVC050,0.34,16.00,VWS V14.01,2013-06-04 18:50:00,
2013-06-04 13:55:00,57.9,53.7,29.82,NNE,23,0.0,5.0,86,0.00,,,0.34,23.0,WUHU216DAVISVP2,2013-06-04 18:55:00,
2013-06-04 14:00:00,56.8,53.3,30.07,NNE,26,0.0,0.0,88,0.03,,OVC050,0.37,23.00,VWS V14.01,2013-06-04 19:00:00,
2013-06-04 14:05:00,56.7,53.5,30.08,NNE,15,3.0,3.0,89,0.05,,OVC028,0.39,19.00,VWS V14.01,2013-06-04 19:05:00,
2013-06-04 14:10:00,57.5,54.0,29.84,NE,41,0.0,6.0,88,0.08,,,0.42,35.0,WUHU216DAVISVP2,2013-06-04 19:10:00,
2013-06-04 14:15:00,57.1,53.9,29.82,SSE,152,7.0,7.0,89,0.16,,,0.50,74.0,WUHU216DAVISVP2,2013-06-04 19:15:00,
2013-06-04 14:20:00,56.7,53.8,29.80,SE,140,6.0,10.0,90,0.21,,,0.55,102.0,WUHU216DAVISVP2,2013-06-04 19:20:00,
2013-06-04 14:25:00,56.6,54.0,29.80,ESE,121,6.0,13.0,91,0.23,,,0.57,88.0,WUHU216DAVISVP2,2013-06-04 19:25:00,
2013-06-04 14:30:00,56.6,54.0,29.81,SSE,154,11.0,15.0,91,0.26,,,0.60,81.0,WUHU216DAVISVP2,2013-06-04 19:30:00,
2013-06-04 14:35:00,56.6,54.0,29.81,SSE,167,6.0,15.0,91,0.27,,,0.61,63.0,WUHU216DAVISVP2,2013-06-04 19:35:00,
2013-06-04 14:40:00,56.4,53.8,29.80,South,171,9.0,15.0,91,0.28,,,0.62,53.0,WUHU216DAVISVP2,2013-06-04 19:40:00,
2013-06-04 14:45:00,55.3,53.6,30.05,SE,125,6.0,7.0,94,0.29,,RA,0.63,53.00,VWS V14.01,2013-06-04 19:45:00,
2013-06-04 14:50:00,56.1,53.8,29.80,SE,134,13.0,15.0,92,0.31,,,0.65,60.0,WUHU216DAVISVP2,2013-06-04 19:50:00,
2013-06-04 14:55:00,56.2,53.9,29.80,SSE,160,0.0,13.0,92,0.31,,,0.65,67.0,WUHU216DAVISVP2,2013-06-04 19:55:00,
2013-06-04 15:00:00,56.2,53.9,29.81,SSE,157,7.0,15.0,92,0.29,,,0.66,54.0,WUHU216DAVISVP2,2013-06-04 20:00:00,
2013-06-04 15:05:00,56.2,53.9,29.81,SSE,167,4.0,18.0,92,0.30,,,0.68,60.0,WUHU216DAVISVP2,2013-06-04 20:05:00,
2013-06-04 15:10:00,56.3,54.0,29.82,SE,130,5.0,18.0,92,0.27,,,0.69,67.0,WUHU216DAVISVP2,2013-06-04 20:10:00,
2013-06-04 15:15:00,56.3,54.0,29.82,SE,144,9.0,13.0,92,0.19,,,0.69,60.0,WUHU216DAVISVP2,2013-06-04 20:15:00,
2013-06-04 15:20:00,55.3,53.9,30.07,SSE,153,6.0,7.0,95,0.16,,-RA,0.71,49.00,VWS V14.01,2013-06-04 20:20:00,
2013-06-04 15:25:00,56.3,54.0,29.82,SSE,161,5.0,13.0,92,0.15,,,0.72,69.0,WUHU216DAVISVP2,2013-06-04 20:25:00,
2013-06-04 15:30:00,56.3,54.0,29.82,SSE,163,8.0,12.0,92,0.13,,,0.73,104.0,WUHU216DAVISVP2,2013-06-04 20:30:00,
2013-06-04 15:35:00,55.4,54.0,30.08,East,90,3.0,11.0,95,0.12,,RA,0.73,211.00,VWS V14.01,2013-06-04 20:35:00,
2013-06-04 15:40:00,56.6,54.6,29.81,SSE,160,6.0,12.0,93,0.12,,,0.74,258.0,WUHU216DAVISVP2,2013-06-04 20:40:00,
2013-06-04 15:45:00,57.1,55.1,29.81,SSE,160,9.0,12.0,93,0.11,,,0.74,366.0,WUHU216DAVISVP2,2013-06-04 20:45:00,
2013-06-04 15:50:00,57.3,55.3,29.81,SE,130,10.0,15.0,93,0.10,,,0.75,218.0,WUHU216DAVISVP2,2013-06-04 20:50:00,
2013-06-04 15:55:00,57.2,55.2,29.81,SE,136,7.0,15.0,93,0.10,,,0.75,213.0,WUHU216DAVISVP2,2013-06-04 20:55:00,
2013-06-04 16:00:00,57.1,55.1,29.81,SSE,156,6.0,15.0,93,0.09,,,0.75,163.0,WUHU216DAVISVP2,2013-06-04 21:00:00,
2013-06-04 16:05:00,57.1,55.1,29.81,SSE,157,10.0,15.0,93,0.07,,,0.75,125.0,WUHU216DAVISVP2,2013-06-04 21:05:00,
2013-06-04 16:10:00,56.8,54.8,29.81,SSE,152,9.0,15.0,93,0.06,,,0.75,79.0,WUHU216DAVISVP2,2013-06-04 21:10:00,
2013-06-04 16:15:00,56.7,54.7,29.81,SSE,154,4.0,15.0,93,0.06,,,0.75,74.0,WUHU216DAVISVP2,2013-06-04 21:15:00,
2013-06-04 16:20:00,56.4,54.4,29.81,ESE,107,9.0,13.0,93,0.04,,,0.75,51.0,WUHU216DAVISVP2,2013-06-04 21:20:00,
2013-06-04 16:25:00,56.4,54.4,29.81,SSE,150,5.0,13.0,93,0.03,,,0.75,47.0,WUHU216DAVISVP2,2013-06-04 21:25:00,
2013-06-04 16:30:00,55.2,53.8,30.07,SSE,149,6.0,6.0,95,0.02,,-RA,0.75,58.00,VWS V14.01,2013-06-04 21:30:00,
2013-06-04 16:35:00,56.2,54.2,29.81,SSE,151,6.0,13.0,93,0.02,,,0.75,114.0,WUHU216DAVISVP2,2013-06-04 21:35:00,
2013-06-04 16:40:00,55.3,53.9,30.07,ESE,117,1.0,4.0,95,0.01,,-RA,0.75,100.00,VWS V14.01,2013-06-04 21:40:00,
2013-06-04 16:45:00,56.2,54.2,29.81,SSE,160,5.0,11.0,93,0.01,,,0.75,63.0,WUHU216DAVISVP2,2013-06-04 21:45:00,
2013-06-04 16:50:00,56.1,54.1,29.82,SSE,163,12.0,14.0,93,0.00,,,0.75,70.0,WUHU216DAVISVP2,2013-06-04 21:50:00,
2013-06-04 16:55:00,56.1,54.1,29.82,SSE,150,9.0,14.0,93,0.00,,,0.75,42.0,WUHU216DAVISVP2,2013-06-04 21:55:00,
2013-06-04 17:00:00,56.0,54.0,29.82,ESE,122,4.0,13.0,93,0.00,,,0.75,65.0,WUHU216DAVISVP2,2013-06-04 22:00:00,
2013-06-04 17:05:00,56.0,54.0,29.82,South,182,8.0,13.0,93,0.00,,,0.75,81.0,WUHU216DAVISVP2,2013-06-04 22:05:00,
2013-06-04 17:10:00,54.9,53.5,30.07,SSE,160,8.0,8.0,95,0.00,,,0.75,83.00,VWS V14.01,2013-06-04 22:10:00,
2013-06-04 17:15:00,55.7,53.7,29.82,SE,128,10.0,12.0,93,0.00,,,0.75,81.0,WUHU216DAVISVP2,2013-06-04 22:15:00,
2013-06-04 17:20:00,55.6,53.3,29.82,ESE,120,8.0,14.0,92,0.00,,,0.75,72.0,WUHU216DAVISVP2,2013-06-04 22:20:00,
2013-06-04 17:25:00,54.6,52.9,30.06,SSE,161,1.0,4.0,94,0.00,,,0.75,60.00,VWS V14.01,2013-06-04 22:25:00,
2013-06-04 17:30:00,55.6,53.3,29.81,ESE,116,7.0,11.0,92,0.00,,,0.75,58.0,WUHU216DAVISVP2,2013-06-04 22:30:00,
2013-06-04 17:35:00,55.6,53.3,29.81,SSE,150,10.0,13.0,92,0.00,,,0.75,37.0,WUHU216DAVISVP2,2013-06-04 22:35:00,
2013-06-04 17:40:00,54.4,52.7,30.06,SE,146,6.0,9.0,94,0.01,,,0.76,32.00,VWS V14.01,2013-06-04 22:40:00,
2013-06-04 17:45:00,54.4,52.7,30.07,SE,146,0.0,5.0,94,0.01,,,0.76,32.00,VWS V14.01,2013-06-04 22:45:00,
2013-06-04 17:50:00,55.3,53.0,29.81,SSE,156,6.0,11.0,92,0.01,,,0.76,30.0,WUHU216DAVISVP2,2013-06-04 22:50:00,
2013-06-04 17:55:00,55.2,52.9,29.81,ESE,123,2.0,12.0,92,0.01,,,0.76,37.0,WUHU216DAVISVP2,2013-06-04 22:55:00,
2013-06-04 18:00:00,55.2,52.9,29.81,SE,138,1.0,12.0,92,0.03,,,0.78,30.0,WUHU216DAVISVP2,2013-06-04 23:00:00,
2013-06-04 18:05:00,54.1,52.4,30.06,ENE,62,0.0,3.0,94,0.03,,OVC041,0.78,25.00,VWS V14.01,2013-06-04 23:05:00,
2013-06-04 18:10:00,55.1,52.8,29.81,South,179,3.0,8.0,92,0.03,,,0.78,16.0,WUHU216DAVISVP2,2013-06-04 23:10:00,
2013-06-04 18:15:00,55.0,52.7,29.81,SSE,150,1.0,7.0,92,0.03,,,0.78,12.0,WUHU216DAVISVP2,2013-06-04 23:15:00,
2013-06-04 18:20:00,55.0,52.7,29.80,South,171,6.0,9.0,92,0.03,,,0.78,11.0,WUHU216DAVISVP2,2013-06-04 23:20:00,
2013-06-04 18:25:00,54.9,52.3,29.80,SSE,155,5.0,10.0,91,0.04,,,0.79,12.0,WUHU216DAVISVP2,2013-06-04 23:25:00,
2013-06-04 18:30:00,54.9,52.3,29.81,ESE,123,1.0,10.0,91,0.04,,,0.79,12.0,WUHU216DAVISVP2,2013-06-04 23:30:00,
2013-06-04 18:35:00,54.8,51.9,29.80,SSE,163,1.0,9.0,90,0.04,,,0.79,14.0,WUHU216DAVISVP2,2013-06-04 23:35:00,
2013-06-04 18:40:00,54.8,51.9,29.81,South,174,7.0,12.0,90,0.03,,,0.79,18.0,WUHU216DAVISVP2,2013-06-04 23:40:00,
2013-06-04 18:45:00,54.7,51.8,29.82,SSW,192,0.0,12.0,90,0.04,,,0.80,16.0,WUHU216DAVISVP2,2013-06-04 23:45:00,
2013-06-04 18:50:00,53.6,51.3,30.08,East,87,0.0,0.0,92,0.05,,OVC041,0.81,12.00,VWS V14.01,2013-06-04 23:50:00,
2013-06-04 18:55:00,53.5,51.2,30.08,ENE,59,0.0,0.0,92,0.05,,OVC041,0.81,5.00,VWS V14.01,2013-06-04 23:55:00,
2013-06-04 19:00:00,54.4,51.5,29.82,NNE,28,0.0,5.0,90,0.03,,,0.81,0.0,WUHU216DAVISVP2,2013-06-05 00:00:00,
2013-06-04 19:05:00,53.2,50.9,30.08,SE,129,0.0,0.0,92,0.03,,-RA,0.81,7.00,VWS V14.01,2013-06-05 00:05:00,
2013-06-04 19:10:00,54.1,51.2,29.82,ESE,105,4.0,7.0,90,0.03,,,0.81,5.0,WUHU216DAVISVP2,2013-06-05 00:10:00,
2013-06-04 19:15:00,53.9,51.0,29.83,SSE,156,0.0,7.0,90,0.05,,,0.84,5.0,WUHU216DAVISVP2,2013-06-05 00:15:00,
2013-06-04 19:20:00,52.8,50.5,30.08,ESE,106,2.0,4.0,92,0.13,,-RA,0.91,0.00,VWS V14.01,2013-06-05 00:20:00,
2013-06-04 19:25:00,53.6,51.0,29.82,SSE,167,0.0,8.0,91,0.13,,,0.92,7.0,WUHU216DAVISVP2,2013-06-05 00:25:00,
2013-06-04 19:30:00,52.5,50.5,30.09,SSE,157,4.0,4.0,93,0.14,,-RA,0.93,5.00,VWS V14.01,2013-06-05 00:30:00,
2013-06-04 19:35:00,53.4,50.8,29.84,SSE,155,0.0,9.0,91,0.14,,,0.94,0.0,WUHU216DAVISVP2,2013-06-05 00:35:00,
2013-06-04 19:40:00,53.3,50.7,29.83,NNE,15,1.0,9.0,91,0.15,,,0.94,0.0,WUHU216DAVISVP2,2013-06-05 00:40:00,
2013-06-04 19:45:00,53.2,50.9,29.83,East,89,1.0,10.0,92,0.14,,,0.94,0.0,WUHU216DAVISVP2,2013-06-05 00:45:00,
2013-06-04 19:50:00,53.2,50.9,29.82,NNE,13,0.0,10.0,92,0.14,,,0.95,7.0,WUHU216DAVISVP2,2013-06-05 00:50:00,
2013-06-04 19:55:00,53.1,50.8,29.82,ESE,107,0.0,6.0,92,0.14,,,0.95,19.0,WUHU216DAVISVP2,2013-06-05 00:55:00,
2013-06-04 20:00:00,52.1,50.4,30.08,NE,48,0.0,1.0,94,0.14,,,0.95,33.00,VWS V14.01,2013-06-05 01:00:00,
2013-06-04 20:05:00,53.1,51.1,29.82,East,100,0.0,10.0,93,0.14,,,0.95,32.0,WUHU216DAVISVP2,2013-06-05 01:05:00,
2013-06-04 20:10:00,53.1,51.1,29.82,East,99,3.0,10.0,93,0.15,,,0.96,35.0,WUHU216DAVISVP2,2013-06-05 01:10:00,
2013-06-04 20:15:00,53.1,51.1,29.83,East,81,4.0,10.0,93,0.13,,,0.96,23.0,WUHU216DAVISVP2,2013-06-05 01:15:00,
2013-06-04 20:20:00,53.1,51.1,29.83,East,79,2.0,10.0,93,0.05,,,0.96,21.0,WUHU216DAVISVP2,2013-06-05 01:20:00,
2013-06-04 20:25:00,53.1,51.1,29.83,SE,126,5.0,8.0,93,0.04,,,0.96,19.0,WUHU216DAVISVP2,2013-06-05 01:25:00,
2013-06-04 20:30:00,53.1,51.1,29.83,SE,144,0.0,7.0,93,0.03,,,0.96,12.0,WUHU216DAVISVP2,2013-06-05 01:30:00,
2013-06-04 20:35:00,52.1,50.7,30.09,ESE,104,6.0,7.0,95,0.03,,-RA,0.96,9.00,VWS V14.01,2013-06-05 01:35:00,
2013-06-04 20:40:00,53.1,51.1,29.83,NE,55,0.0,8.0,93,0.02,,,0.96,0.0,WUHU216DAVISVP2,2013-06-05 01:40:00,
2013-06-04 20:45:00,53.0,51.0,29.83,East,90,3.0,7.0,93,0.02,,,0.96,0.0,WUHU216DAVISVP2,2013-06-05 01:45:00,
2013-06-04 20:50:00,53.0,51.0,29.83,East,84,4.0,9.0,93,0.01,,,0.96,0.0,WUHU216DAVISVP2,2013-06-05 01:50:00,
2013-06-04 20:55:00,52.0,50.6,30.08,SE,132,2.0,5.0,95,0.01,,-RA,0.96,5.00,VWS V14.01,2013-06-05 01:55:00,
2013-06-04 21:00:00,53.0,51.0,29.83,ENE,58,3.0,8.0,93,0.01,,,0.96,0.0,WUHU216DAVISVP2,2013-06-05 02:00:00,
2013-06-04 21:05:00,53.0,51.0,29.83,East,82,5.0,7.0,93,0.01,,,0.96,0.0,WUHU216DAVISVP2,2013-06-05 02:05:00,
2013-06-04 21:10:00,53.0,51.0,29.83,ESE,120,6.0,7.0,93,0.00,,,0.96,0.0,WUHU216DAVISVP2,2013-06-05 02:10:00,
2013-06-04 21:15:00,52.0,50.6,30.09,SE,136,5.0,5.0,95,0.00,,-RA,0.96,0.00,VWS V14.01,2013-06-05 02:15:00,
2013-06-04 21:20:00,53.0,51.0,29.83,ESE,108,2.0,8.0,93,0.00,,,0.96,0.0,WUHU216DAVISVP2,2013-06-05 02:20:00,
2013-06-04 21:25:00,53.0,51.0,29.82,SE,140,4.0,8.0,93,0.00,,,0.96,0.0,WUHU216DAVISVP2,2013-06-05 02:25:00,
2013-06-04 21:30:00,53.0,51.0,29.83,ESE,103,5.0,8.0,93,0.00,,,0.96,0.0,WUHU216DAVISVP2,2013-06-05 02:30:00,
2013-06-04 21:35:00,53.0,51.0,29.83,SE,136,5.0,8.0,93,0.00,,,0.96,0.0,WUHU216DAVISVP2,2013-06-05 02:35:00,
2013-06-04 21:40:00,53.0,51.0,29.83,SSE,154,6.0,8.0,93,0.00,,,0.96,0.0,WUHU216DAVISVP2,2013-06-05 02:40:00,
2013-06-04 21:45:00,53.0,51.0,29.83,South,176,4.0,8.0,93,0.00,,,0.96,0.0,WUHU216DAVISVP2,2013-06-05 02:45:00,
2013-06-04 21:50:00,53.0,51.3,29.83,SE,134,1.0,6.0,94,0.00,,,0.96,0.0,WUHU216DAVISVP2,2013-06-05 02:50:00,
2013-06-04 21:55:00,53.0,51.3,29.83,NNE,22,0.0,7.0,94,0.00,,,0.96,0.0,WUHU216DAVISVP2,2013-06-05 02:55:00,
2013-06-04 22:00:00,53.0,51.3,29.83,ESE,117,0.0,7.0,94,0.00,,,0.96,0.0,WUHU216DAVISVP2,2013-06-05 03:00:00,
2013-06-04 22:05:00,53.1,51.4,29.83,ENE,71,0.0,7.0,94,0.00,,,0.96,0.0,WUHU216DAVISVP2,2013-06-05 03:05:00,
2013-06-04 22:10:00,53.1,51.4,29.83,SE,142,4.0,9.0,94,0.00,,,0.96,0.0,WUHU216DAVISVP2,2013-06-05 03:10:00,
2013-06-04 22:15:00,53.2,51.5,29.83,SE,136,7.0,16.0,94,0.00,,,0.96,0.0,WUHU216DAVISVP2,2013-06-05 03:15:00,
2013-06-04 22:20:00,53.2,51.5,29.83,South,181,1.0,16.0,94,0.00,,,0.96,0.0,WUHU216DAVISVP2,2013-06-05 03:20:00,
2013-06-04 22:25:00,53.2,51.5,29.83,SSE,167,4.0,9.0,94,0.00,,,0.96,0.0,WUHU216DAVISVP2,2013-06-05 03:25:00,
2013-06-04 22:30:00,53.2,51.5,29.83,SSE,152,1.0,8.0,94,0.00,,,0.96,0.0,WUHU216DAVISVP2,2013-06-05 03:30:00,
2013-06-04 22:35:00,52.2,51.1,30.08,ESE,110,0.0,1.0,96,0.00,,OVC010,0.96,0.00,VWS V14.01,2013-06-05 03:35:00,
2013-06-04 22:40:00,53.2,51.5,29.82,SE,129,2.0,6.0,94,0.00,,,0.96,0.0,WUHU216DAVISVP2,2013-06-05 03:40:00,
2013-06-04 22:45:00,53.2,51.5,29.83,SSE,162,1.0,6.0,94,0.00,,,0.96,0.0,WUHU216DAVISVP2,2013-06-05 03:45:00,
2013-06-04 22:50:00,52.2,51.1,30.08,SE,133,0.0,0.0,96,0.00,,OVC031,0.96,0.00,VWS V14.01,2013-06-05 03:50:00,
2013-06-04 22:55:00,52.1,51.0,30.08,South,172,0.0,2.0,96,0.00,,OVC031,0.96,0.00,VWS V14.01,2013-06-05 03:55:00,
2013-06-04 23:00:00,53.1,51.4,29.83,South,173,1.0,5.0,94,0.00,,,0.96,0.0,WUHU216DAVISVP2,2013-06-05 04:00:00,
2013-06-04 23:01:00,53.1,51.4,29.83,SE,140,2.0,5.0,94,0.00,,,0.96,0.0,WUHU216DAVISVP2,2013-06-05 04:01:00,
2013-06-04 23:06:00,53.1,51.4,29.83,ESE,123,0.0,4.0,94,0.00,,,0.96,0.0,WUHU216DAVISVP2,2013-06-05 04:06:00,
2013-06-04 23:11:00,53.0,51.3,29.83,South,171,1.0,2.0,94,0.00,,,0.96,0.0,WUHU216DAVISVP2,2013-06-05 04:11:00,
2013-06-04 23:16:00,52.0,50.9,30.08,East,97,0.0,0.0,96,0.00,,OVC027,0.96,0.00,VWS V14.01,2013-06-05 04:16:00,
2013-06-04 23:21:00,53.0,51.3,29.83,SE,134,0.0,5.0,94,0.00,,,0.96,0.0,WUHU216DAVISVP2,2013-06-05 04:21:00,
2013-06-04 23:26:00,53.0,51.3,29.82,SE,141,0.0,5.0,94,0.00,,,0.96,0.0,WUHU216DAVISVP2,2013-06-05 04:26:00,
2013-06-04 23:31:00,52.9,51.2,29.82,ESE,118,0.0,4.0,94,0.00,,,0.96,0.0,WUHU216DAVISVP2,2013-06-05 04:31:00,
2013-06-04 23:36:00,52.9,51.2,29.82,SE,139,0.0,3.0,94,0.00,,,0.96,0.0,WUHU216DAVISVP2,2013-06-05 04:36:00,
2013-06-04 23:41:00,52.9,51.2,29.82,ESE,123,0.0,3.0,94,0.00,,,0.96,0.0,WUHU216DAVISVP2,2013-06-05 04:41:00,
2013-06-04 23:46:00,51.9,50.8,30.07,SSE,156,1.0,1.0,96,0.00,,OVC027,0.96,0.00,VWS V14.01,2013-06-05 04:46:00,
2013-06-04 23:51:00,52.9,51.2,29.82,ESE,113,0.0,7.0,94,0.00,,,0.96,0.0,WUHU216DAVISVP2,2013-06-05 04:51:00,
2013-06-04 23:56:00,52.9,51.2,29.82,SSE,150,0.0,5.0,94,0.00,,,0.96,0.0,WUHU216DAVISVP2,2013-06-05 04:56:00,